Regional Weather Roundup
Issued by NWS Nashville, TN

Home | Current Version | Previous Version | Text Only | Print | Product List | Glossary On
Versions: 1 2 3 4 5 6 7 8 9 10 11 12 13 14 15 16 17 18 19 20 21 22 23 24 25 26 27 28 29 30 31 32 33 34 35 36 37 38 39 40 41 42 43 44 45 46 47 48 49 50
000
ASUS44 KOHX 240015
RWROHX
MIDDLE TENNESSEE HOURLY WEATHER ROUNDUP
NATIONAL WEATHER SERVICE NASHVILLE TN
700 PM CDT WED JUL 23 2014

NOTE: "FAIR" INDICATES FEW OR NO CLOUDS BELOW 12,000 FEET WITH
NO SIGNIFICANT WEATHER AND/OR OBSTRUCTIONS TO VISIBILITY.

* THESE REPORTS ARE NOT UNDER NWS QUALITY CONTROL AND MAY NOT
  REPORT WEATHER SUCH AS PRECIPITATION AND FOG.


TNZ005>011-023>034-057-059-062>066-078-080-240100
...NORTHERN MIDDLE TENNESSEE...

CITY           SKY/WX    TMP DP  RH WIND       PRES   REMARKS
CLARKSVILLE    PTSUNNY   83  70  64 N13       29.97R
CROSSVILLE     CLEAR     76  70  82 CALM      30.05R
GALLATIN         N/A     87  70  57 W5        29.96R HX  92
DICKSON        PTSUNNY   82  72  69 NW3       29.98R
LEBANON        CLOUDY    78  71  79 W10       29.94R
NASHVILLE      PTSUNNY   86  71  60 NW8       29.96R HX  91
SMYRNA         PTSUNNY   86  75  69 SW7       29.95S HX  95
SPARTA         CLEAR     81  73  78 CALM      29.99R
$$
TNZ056-058-060-061-075>077-079-093>097-240100
...SOUTHERN MIDDLE TENNESSEE...

CITY           SKY/WX    TMP DP  RH WIND       PRES   REMARKS
COLUMBIA       SUNNY     82  75  78 SW8       29.95S
FAYETTEVILLE   CLEAR     79  70  73 S9        29.97F
LEWISBURG      MOSUNNY   84  72  67 SW7       29.96S
MCMINNVILLE    CLEAR     84  72  65 CALM      29.99R
MURFREESBORO   CLEAR     87  70  57 SW8       29.94  HX  92
SHELBYVILLE    CLEAR     84  73  70 SW5       29.98S HX  91
TULLAHOMA      CLEAR     81  70  69 SW5       30.00R
WINCHESTER     CLEAR     82  73  74 W5        29.98R
$$


...KEY TO REMARKS...
VSB - VISIBILITY IN MILES
WCI - WIND CHILL INDEX
HX  - HEAT INDEX



USA.gov is the U.S. government's official web portal to all federal, state and local government web resources and services.